This is the latest recevied weather packets stored in our database for station/object OK1KZE-6. If no packets are shown the sender has not sent any weather packets the latest 10 day(s).
| Time | Temp. | Humidity | Pressure | Rain* | Wind** | Luminosity | Snow |
|---|---|---|---|---|---|---|---|
| 1777710908 | 18.89° C | 42% | 1026.5 hPa | - | - | - | - |
| 1777710608 | 18.33° C | 45% | 1026.7 hPa | - | - | - | - |
| 1777710308 | 18.33° C | 45% | 1026.6 hPa | - | - | - | - |
| 1777710008 | 17.78° C | 46% | 1026.5 hPa | - | - | - | - |
| 1777709708 | 17.78° C | 49% | 1026.5 hPa | - | - | - | - |
| 1777709408 | 17.22° C | 49% | 1026.8 hPa | - | - | - | - |
| 1777709108 | 17.22° C | 50% | 1026.8 hPa | - | - | - | - |
| 1777708808 | 17.22° C | 49% | 1026.7 hPa | - | - | - | - |
| 1777708508 | 16.67° C | 51% | 1026.9 hPa | - | - | - | - |
| 1777708208 | 16.67° C | 53% | 1026.7 hPa | - | - | - | - |
| 1777707908 | 16.67° C | 53% | 1026.8 hPa | - | - | - | - |
| 1777707608 | 16.11° C | 55% | 1026.8 hPa | - | - | - | - |
| 1777707309 | 15.56° C | 55% | 1027 hPa | - | - | - | - |
| 1777707008 | 15° C | 57% | 1026.9 hPa | - | - | - | - |
| 1777706707 | 15° C | 56% | 1026.7 hPa | - | - | - | - |
| 1777706407 | 14.44° C | 57% | 1026.8 hPa | - | - | - | - |
| 1777706108 | 14.44° C | 57% | 1026.6 hPa | - | - | - | - |
| 1777705808 | 13.89° C | 57% | 1026.7 hPa | - | - | - | - |
| 1777705507 | 12.78° C | 58% | 1026.6 hPa | - | - | - | - |
| 1777705208 | 12.78° C | 58% | 1026.9 hPa | - | - | - | - |
| 1777704908 | 12.78° C | 58% | 1026.6 hPa | - | - | - | - |
| 1777704608 | 12.22° C | 61% | 1026.6 hPa | - | - | - | - |
| 1777704308 | 12.22° C | 63% | 1026.7 hPa | - | - | - | - |
| 1777704007 | 11.67° C | 64% | 1026.5 hPa | - | - | - | - |
| 1777703708 | 11.11° C | 65% | 1026.7 hPa | - | - | - | - |
* Rain since midnight (hover to see other rain measurements)
** Current wind speed in m/s (hover to see current wind gust speed)